AUA9631 LOWW-LDSB

Flight info

Callsign AUA9631
Flight time 0h 57m
Altitude 23000
Route STEIN DCT NEKIN/N0318F220 DCT KUSIB DCT SIRMI DCT SPL
Aircraft DH8D/M-SDE2E3FGRY/H

Departure

Time 2026-04-19 06:24
Airport Vienna International Airport (LOWW)

Arrival

Time 2026-04-19 07:22
Airport Brač Airport (LDSB)
Time Latitude Longitude Altitude Speed Heading
2026-04-19 05:57 48.11559 16.56733 606 ft 0 kts 206°
2026-04-19 06:21 48.11558 16.56732 606 ft 1 kts 206°
2026-04-19 06:21 48.11532 16.56707 606 ft 8 kts 229°
2026-04-19 06:21 48.11486 16.56622 604 ft 11 kts 220°
2026-04-19 06:22 48.11421 16.56631 604 ft 12 kts 129°
2026-04-19 06:22 48.11385 16.56736 605 ft 8 kts 121°
2026-04-19 06:22 48.11337 16.56776 605 ft 7 kts 194°
2026-04-19 06:22 48.11323 16.56766 605 ft 0 kts 211°
2026-04-19 06:23 48.11298 16.56696 605 ft 14 kts 264°
2026-04-19 06:23 48.11292 16.56552 600 ft 14 kts 267°
2026-04-19 06:23 48.11290 16.56421 597 ft 12 kts 275°
2026-04-19 06:24 48.11321 16.56289 594 ft 26 kts 298°
2026-04-19 06:24 48.11496 16.55748 587 ft 104 kts 296°
2026-04-19 06:24 48.11933 16.54424 755 ft 145 kts 294°
2026-04-19 06:24 48.12260 16.53074 1219 ft 152 kts 273°
2026-04-19 06:25 48.11215 16.50350 2003 ft 183 kts 214°
2026-04-19 06:25 48.10171 16.49371 2552 ft 193 kts 212°
2026-04-19 06:26 48.08292 16.47687 3396 ft 199 kts 208°
2026-04-19 06:26 48.06883 16.47238 3840 ft 206 kts 177°
2026-04-19 06:26 48.03785 16.47817 4898 ft 216 kts 174°
2026-04-19 06:27 48.02200 16.48121 5289 ft 225 kts 174°
2026-04-19 06:27 48.00224 16.48499 5888 ft 230 kts 174°
2026-04-19 06:27 47.98788 16.48775 6331 ft 233 kts 174°
2026-04-19 06:27 47.97435 16.49036 6739 ft 235 kts 174°
2026-04-19 06:28 47.95683 16.49378 7279 ft 237 kts 174°
2026-04-19 06:28 47.92284 16.50053 8370 ft 242 kts 174°
2026-04-19 06:28 47.90395 16.50429 8896 ft 244 kts 174°
2026-04-19 06:29 47.88926 16.50721 9314 ft 246 kts 174°
2026-04-19 06:29 47.86947 16.51118 9875 ft 248 kts 173°
2026-04-19 06:29 47.85568 16.51395 10231 ft 251 kts 174°
2026-04-19 06:29 47.83654 16.51777 10775 ft 253 kts 174°
2026-04-19 06:30 47.81098 16.52289 11542 ft 255 kts 174°
2026-04-19 06:30 47.79354 16.52637 12014 ft 257 kts 174°
2026-04-19 06:30 47.75829 16.53342 12948 ft 261 kts 174°
2026-04-19 06:31 47.73728 16.53760 13330 ft 272 kts 174°
2026-04-19 06:31 47.71682 16.54169 13729 ft 276 kts 174°
2026-04-19 06:31 47.69495 16.54604 14223 ft 278 kts 174°
2026-04-19 06:31 47.66928 16.55116 14796 ft 279 kts 174°
2026-04-19 06:32 47.64847 16.55530 15189 ft 282 kts 174°
2026-04-19 06:32 47.61159 16.56265 15929 ft 287 kts 174°
2026-04-19 06:32 47.58983 16.56700 16383 ft 285 kts 174°
2026-04-19 06:33 47.57450 16.57006 16629 ft 288 kts 174°
2026-04-19 06:33 47.55881 16.57318 16867 ft 290 kts 174°
2026-04-19 06:33 47.54182 16.57655 17132 ft 292 kts 174°
2026-04-19 06:33 47.52052 16.58079 17490 ft 292 kts 174°
2026-04-19 06:34 47.48568 16.58769 18036 ft 296 kts 174°
2026-04-19 06:34 47.46195 16.59238 18440 ft 297 kts 174°
2026-04-19 06:34 47.44141 16.59644 18799 ft 299 kts 174°
2026-04-19 06:34 47.42085 16.60042 19141 ft 300 kts 176°
2026-04-19 06:35 47.40001 16.60296 19463 ft 301 kts 179°
2026-04-19 06:35 47.37873 16.60495 19749 ft 303 kts 179°
2026-04-19 06:35 47.35783 16.60694 20039 ft 304 kts 179°
2026-04-19 06:35 47.33689 16.60897 20294 ft 304 kts 179°
2026-04-19 06:36 47.31562 16.61106 20519 ft 307 kts 179°
2026-04-19 06:36 47.29447 16.61317 20748 ft 308 kts 179°
2026-04-19 06:36 47.27290 16.61535 20969 ft 308 kts 178°
2026-04-19 06:36 47.25146 16.61752 21168 ft 310 kts 179°
2026-04-19 06:37 47.23002 16.61970 21380 ft 311 kts 178°
2026-04-19 06:37 47.20854 16.62189 21592 ft 311 kts 178°
2026-04-19 06:37 47.18664 16.62412 21743 ft 313 kts 178°
2026-04-19 06:37 47.16502 16.62633 21918 ft 314 kts 178°
2026-04-19 06:38 47.14331 16.62854 22036 ft 318 kts 178°
2026-04-19 06:38 47.12103 16.63081 22067 ft 323 kts 178°
2026-04-19 06:38 47.09842 16.63312 22073 ft 329 kts 178°
2026-04-19 06:38 47.07540 16.63547 22067 ft 333 kts 178°
2026-04-19 06:39 47.05188 16.63787 22067 ft 335 kts 178°
2026-04-19 06:39 47.02839 16.64026 22069 ft 339 kts 178°
2026-04-19 06:39 47.00476 16.64267 22070 ft 343 kts 178°
2026-04-19 06:39 46.98121 16.64508 22068 ft 344 kts 178°
2026-04-19 06:40 46.95703 16.64755 22070 ft 345 kts 178°
2026-04-19 06:40 46.93280 16.65002 22071 ft 348 kts 178°
2026-04-19 06:40 46.90871 16.65247 22071 ft 347 kts 178°
2026-04-19 06:40 46.88520 16.65487 22072 ft 350 kts 178°
2026-04-19 06:41 46.86078 16.65733 22075 ft 353 kts 178°
2026-04-19 06:41 46.83599 16.65983 22075 ft 356 kts 178°
2026-04-19 06:41 46.81122 16.66233 22071 ft 358 kts 178°
2026-04-19 06:41 46.78621 16.66485 22074 ft 360 kts 178°
2026-04-19 06:42 46.76130 16.66737 22074 ft 361 kts 178°
2026-04-19 06:42 46.73643 16.66988 22076 ft 363 kts 178°
2026-04-19 06:42 46.71099 16.67244 22075 ft 365 kts 178°
2026-04-19 06:42 46.68580 16.67498 22073 ft 365 kts 178°
2026-04-19 06:43 46.66060 16.67752 22073 ft 364 kts 178°
2026-04-19 06:43 46.63519 16.68008 22070 ft 363 kts 178°
2026-04-19 06:43 46.61008 16.68262 22070 ft 361 kts 178°
2026-04-19 06:43 46.58496 16.68515 22071 ft 359 kts 178°
2026-04-19 06:44 46.56015 16.68764 22069 ft 358 kts 178°
2026-04-19 06:44 46.53527 16.69013 22071 ft 358 kts 178°
2026-04-19 06:44 46.51033 16.69263 22073 ft 358 kts 178°
2026-04-19 06:44 46.48522 16.69514 22075 ft 357 kts 178°
2026-04-19 06:45 46.46052 16.69761 22076 ft 356 kts 178°
2026-04-19 06:45 46.43594 16.70006 22073 ft 356 kts 178°
2026-04-19 06:45 46.41120 16.70228 22069 ft 355 kts 180°
2026-04-19 06:45 46.38665 16.69985 22087 ft 353 kts 189°
2026-04-19 06:46 46.36187 16.69508 22080 ft 354 kts 190°
2026-04-19 06:46 46.33764 16.69037 22074 ft 354 kts 190°
2026-04-19 06:46 46.31315 16.68564 22078 ft 353 kts 190°
2026-04-19 06:46 46.28849 16.68090 22078 ft 352 kts 190°
2026-04-19 06:47 46.26413 16.67627 22080 ft 353 kts 189°
2026-04-19 06:47 46.24001 16.67170 22078 ft 353 kts 190°
2026-04-19 06:47 46.21570 16.66711 22078 ft 352 kts 189°
2026-04-19 06:47 46.19132 16.66252 22078 ft 352 kts 190°
2026-04-19 06:48 46.16724 16.65800 22078 ft 353 kts 189°
2026-04-19 06:48 46.14276 16.65342 22079 ft 353 kts 189°
2026-04-19 06:48 46.11841 16.64887 22076 ft 352 kts 189°
2026-04-19 06:48 46.09405 16.64432 22076 ft 353 kts 189°
2026-04-19 06:49 46.06941 16.63973 22078 ft 354 kts 189°
2026-04-19 06:49 46.04500 16.63518 22078 ft 354 kts 189°
2026-04-19 06:49 46.02065 16.63066 22081 ft 355 kts 189°
2026-04-19 06:49 45.99617 16.62612 22076 ft 353 kts 189°
2026-04-19 06:50 45.97154 16.62157 22078 ft 352 kts 189°
2026-04-19 06:50 45.94734 16.61708 22080 ft 353 kts 189°
2026-04-19 06:50 45.92275 16.61253 22077 ft 355 kts 189°
2026-04-19 06:50 45.89809 16.60797 22079 ft 357 kts 189°
2026-04-19 06:51 45.87394 16.60350 22077 ft 356 kts 189°
2026-04-19 06:51 45.84929 16.59895 22079 ft 356 kts 189°
2026-04-19 06:51 45.82506 16.59448 22081 ft 356 kts 189°
2026-04-19 06:51 45.80030 16.58993 22087 ft 356 kts 189°
2026-04-19 06:52 45.77575 16.58541 22085 ft 358 kts 189°
2026-04-19 06:52 45.75084 16.58083 22084 ft 360 kts 189°
2026-04-19 06:52 45.72614 16.57628 22079 ft 359 kts 189°
2026-04-19 06:52 45.70126 16.57172 22081 ft 358 kts 189°
2026-04-19 06:53 45.67664 16.56721 22079 ft 358 kts 190°
2026-04-19 06:53 45.65203 16.56271 22078 ft 356 kts 189°
2026-04-19 06:53 45.62764 16.55825 22080 ft 356 kts 190°
2026-04-19 06:53 45.60307 16.55374 22087 ft 357 kts 189°
2026-04-19 06:54 45.57914 16.54937 22082 ft 357 kts 189°
2026-04-19 06:54 45.55479 16.54492 22078 ft 356 kts 189°
2026-04-19 06:54 45.53036 16.54047 22085 ft 356 kts 189°
2026-04-19 06:54 45.50583 16.53600 22085 ft 358 kts 190°
2026-04-19 06:55 45.48080 16.53145 22081 ft 359 kts 189°
2026-04-19 06:55 45.45609 16.52694 22084 ft 360 kts 190°
2026-04-19 06:55 45.43114 16.52241 22083 ft 360 kts 190°
2026-04-19 06:55 45.40622 16.51788 22087 ft 361 kts 190°
2026-04-19 06:56 45.38148 16.51339 22083 ft 360 kts 190°
2026-04-19 06:56 45.35648 16.50886 22080 ft 359 kts 190°
2026-04-19 06:56 45.33170 16.50438 22085 ft 359 kts 190°
2026-04-19 06:56 45.30696 16.49990 22089 ft 360 kts 189°
2026-04-19 06:57 45.28200 16.49539 22082 ft 360 kts 190°
2026-04-19 06:57 45.25703 16.49088 22087 ft 361 kts 190°
2026-04-19 06:57 45.23197 16.48636 22091 ft 360 kts 190°
2026-04-19 06:57 45.20810 16.48206 22089 ft 360 kts 190°
2026-04-19 06:58 45.18286 16.47751 22087 ft 360 kts 190°
2026-04-19 06:58 45.15818 16.47307 22086 ft 361 kts 190°
2026-04-19 06:58 45.13357 16.46868 22088 ft 361 kts 189°
2026-04-19 06:58 45.10815 16.46431 22085 ft 361 kts 189°
2026-04-19 06:59 45.08317 16.46006 22092 ft 361 kts 189°
2026-04-19 06:59 45.05828 16.45583 22084 ft 361 kts 189°
2026-04-19 06:59 45.03331 16.45159 22087 ft 360 kts 189°
2026-04-19 06:59 45.00862 16.44739 22090 ft 361 kts 189°
2026-04-19 07:00 44.98388 16.44318 22084 ft 360 kts 189°
2026-04-19 07:00 44.95890 16.43893 22086 ft 359 kts 189°
2026-04-19 07:00 44.93412 16.43473 22093 ft 360 kts 189°
2026-04-19 07:00 44.90927 16.43049 22084 ft 360 kts 189°
2026-04-19 07:01 44.88647 16.42663 22082 ft 360 kts 189°
2026-04-19 07:01 44.86056 16.42225 22087 ft 359 kts 189°
2026-04-19 07:01 44.83561 16.41801 22089 ft 360 kts 189°
2026-04-19 07:01 44.81072 16.41379 22088 ft 360 kts 189°
2026-04-19 07:02 44.78575 16.40956 22085 ft 361 kts 189°
2026-04-19 07:02 44.76079 16.40602 22074 ft 362 kts 185°
2026-04-19 07:02 44.73559 16.40705 22087 ft 364 kts 179°
2026-04-19 07:02 44.71027 16.40936 22090 ft 366 kts 178°
2026-04-19 07:03 44.68479 16.41175 22087 ft 366 kts 178°
2026-04-19 07:03 44.65910 16.41418 22080 ft 365 kts 178°
2026-04-19 07:03 44.63381 16.41656 22087 ft 364 kts 178°
2026-04-19 07:03 44.60860 16.41892 22088 ft 363 kts 178°
2026-04-19 07:04 44.58361 16.42118 22087 ft 363 kts 178°
2026-04-19 07:04 44.55824 16.42347 22086 ft 363 kts 178°
2026-04-19 07:04 44.53325 16.42575 22093 ft 363 kts 178°
2026-04-19 07:04 44.50798 16.42807 22087 ft 364 kts 178°
2026-04-19 07:05 44.48260 16.43040 22087 ft 365 kts 178°
2026-04-19 07:05 44.45704 16.43275 22089 ft 366 kts 178°
2026-04-19 07:05 44.43160 16.43511 22088 ft 366 kts 178°
2026-04-19 07:05 44.40598 16.43748 22090 ft 366 kts 178°
2026-04-19 07:06 44.38077 16.43982 22086 ft 367 kts 178°
2026-04-19 07:06 44.35544 16.44217 22089 ft 366 kts 178°
2026-04-19 07:06 44.32964 16.44457 22087 ft 367 kts 178°
2026-04-19 07:06 44.30479 16.44688 22087 ft 366 kts 178°
2026-04-19 07:07 44.27942 16.44923 22089 ft 365 kts 178°
2026-04-19 07:07 44.25429 16.45156 22089 ft 365 kts 178°
2026-04-19 07:07 44.22875 16.45393 22083 ft 366 kts 178°
2026-04-19 07:07 44.20353 16.45627 22082 ft 366 kts 178°
2026-04-19 07:08 44.17824 16.45861 22083 ft 366 kts 178°
2026-04-19 07:08 44.15282 16.46096 22086 ft 367 kts 178°
2026-04-19 07:08 44.12737 16.46331 22086 ft 368 kts 178°
2026-04-19 07:08 44.10181 16.46567 22088 ft 366 kts 178°
2026-04-19 07:09 44.07632 16.46803 22082 ft 360 kts 178°
2026-04-19 07:09 44.05166 16.47036 21837 ft 355 kts 178°
2026-04-19 07:09 44.02710 16.47267 21414 ft 357 kts 178°
2026-04-19 07:09 44.00261 16.47495 20917 ft 358 kts 178°
2026-04-19 07:10 43.97800 16.47722 20419 ft 359 kts 178°
2026-04-19 07:10 43.95307 16.47952 19921 ft 361 kts 178°
2026-04-19 07:10 43.92813 16.48182 19423 ft 362 kts 177°
2026-04-19 07:10 43.90267 16.48415 18720 ft 367 kts 177°
2026-04-19 07:11 43.87796 16.48645 17885 ft 362 kts 177°
2026-04-19 07:11 43.85307 16.48878 17347 ft 353 kts 177°
2026-04-19 07:11 43.82880 16.49104 16891 ft 341 kts 177°
2026-04-19 07:11 43.80564 16.49318 16481 ft 334 kts 177°
2026-04-19 07:12 43.78209 16.49531 16064 ft 331 kts 177°
2026-04-19 07:12 43.75927 16.49738 15654 ft 328 kts 177°
2026-04-19 07:12 43.73666 16.49945 15248 ft 326 kts 177°
2026-04-19 07:12 43.71444 16.50148 14849 ft 324 kts 177°
2026-04-19 07:13 43.69182 16.50354 14447 ft 322 kts 176°
2026-04-19 07:13 43.66969 16.50556 14039 ft 320 kts 176°
2026-04-19 07:13 43.64773 16.50756 13594 ft 320 kts 176°
2026-04-19 07:13 43.62533 16.50960 13184 ft 319 kts 176°
2026-04-19 07:14 43.60338 16.51160 12778 ft 317 kts 176°
2026-04-19 07:14 43.58150 16.51358 12375 ft 315 kts 176°
2026-04-19 07:14 43.55983 16.51554 11981 ft 313 kts 176°
2026-04-19 07:14 43.53802 16.51752 11604 ft 310 kts 176°
2026-04-19 07:15 43.51669 16.51944 11223 ft 308 kts 176°
2026-04-19 07:15 43.49553 16.52136 10848 ft 306 kts 176°
2026-04-19 07:15 43.45342 16.52516 10084 ft 302 kts 176°
2026-04-19 07:16 43.43299 16.52700 9715 ft 300 kts 175°
2026-04-19 07:16 43.41218 16.52888 9349 ft 298 kts 175°
2026-04-19 07:16 43.39150 16.53075 8979 ft 297 kts 175°
2026-04-19 07:16 43.37078 16.53261 8611 ft 292 kts 175°
2026-04-19 07:17 43.35073 16.53441 8255 ft 286 kts 176°
2026-04-19 07:17 43.33102 16.53618 7898 ft 278 kts 175°
2026-04-19 07:17 43.31218 16.53790 7556 ft 264 kts 175°
2026-04-19 07:17 43.29430 16.53954 7236 ft 251 kts 175°
2026-04-19 07:18 43.27714 16.54111 6930 ft 240 kts 175°
2026-04-19 07:18 43.26075 16.54260 6636 ft 231 kts 175°
2026-04-19 07:18 43.24495 16.54405 6355 ft 226 kts 175°
2026-04-19 07:18 43.22942 16.54547 6081 ft 221 kts 175°
2026-04-19 07:19 43.21428 16.54750 5695 ft 220 kts 166°
2026-04-19 07:19 43.20187 16.55845 5097 ft 215 kts 123°
2026-04-19 07:19 43.19838 16.57753 4527 ft 208 kts 79°
2026-04-19 07:19 43.20517 16.59438 4002 ft 202 kts 43°
2026-04-19 07:20 43.21528 16.60650 3689 ft 191 kts 41°
2026-04-19 07:20 43.22480 16.61878 3239 ft 187 kts 43°
2026-04-19 07:20 43.23400 16.63037 2929 ft 173 kts 38°
2026-04-19 07:20 43.24364 16.63981 2676 ft 171 kts 36°
2026-04-19 07:21 43.25331 16.64875 2435 ft 162 kts 33°
2026-04-19 07:21 43.26218 16.65697 2196 ft 148 kts 36°
2026-04-19 07:21 43.27042 16.66499 1993 ft 140 kts 34°
2026-04-19 07:21 43.27809 16.67240 1808 ft 130 kts 34°
2026-04-19 07:22 43.28445 16.67851 1744 ft 71 kts 36°
2026-04-19 07:22 43.28653 16.68050 1726 ft 12 kts 35°
2026-04-19 07:22 43.28701 16.68066 1724 ft 10 kts 340°
2026-04-19 07:22 43.28729 16.68031 1727 ft 4 kts 306°
2026-04-19 07:23 43.28743 16.68005 1729 ft 3 kts 308°
2026-04-19 07:23 43.28778 16.67992 1730 ft 7 kts 25°
2026-04-19 07:23 43.28814 16.68012 1729 ft 1 kts 319°
2026-04-19 07:23 43.28829 16.67984 1731 ft 2 kts 305°
2026-04-19 07:24 43.28838 16.67973 1732 ft 1 kts 355°
2026-04-19 07:24 43.28843 16.67984 1731 ft 0 kts 79°